Theta_e
311 310 310 310 310 310 311 311 311 311 312 311 312 311 311 311 310 311 311 311 311 311 311 311 311 311 311 311 310 310 310 311 311 311 311 312 313 313 313 312 312 313 313 313 313 313 313 313 314 315 315 315 315 316 315 316 316 320 331 331 324 323 324 322 320 316 317 322 314 312 314 315 316 313 313 315 313 314 313 313 315 315 315 315 315 315 315 314
310 310 310 310 310 311 311 311 311 311 312 311 311 311 310 311 310 310 310 311 311 311 311 310 311 310 310 311 310 310 310 311 311 311 311 313 314 313 313 313 313 314 313 313 313 313 314 314 314 315 315 315 315 316 316 316 315 321 330 330 329 328 320 316 316 312 313 317 313 313 314 314 316 314 314 315 313 313 314 314 313 314 315 315 315 315 315 313
310 310 310 310 310 311 311 311 311 311 311 311 310 310 310 311 310 309 310 311 311 311 311 310 310 310 310 311 310 310 310 311 311 311 313 314 313 313 313 313 313 314 314 314 314 314 315 314 314 315 315 315 315 316 315 317 315 315 322 331 332 322 313 312 313 313 314 314 313 312 313 314 314 314 314 314 313 312 314 315 313 314 315 315 315 315 315 313
310 310 310 310 311 310 311 310 310 310 309 309 309 310 310 311 310 309 310 310 310 310 310 310 310 310 310 310 310 310 311 312 312 312 313 314 313 313 313 313 313 313 313 314 314 314 314 313 314 314 315 315 315 316 315 315 315 313 320 330 321 312 314 315 313 314 314 314 313 313 313 314 314 314 314 313 314 315 314 315 315 315 315 315 315 315 315 314
310 310 310 310 310 309 309 308 308 308 307 308 307 309 310 310 309 308 309 309 310 310 310 310 310 310 310 310 310 310 313 314 313 313 313 313 313 313 313 313 313 313 313 314 314 314 314 314 314 314 315 315 315 316 315 313 315 313 314 317 312 310 316 316 313 315 314 314 313 312 314 315 314 314 314 313 316 317 315 315 316 315 315 315 315 315 315 314
308 308 307 307 307 307 307 307 307 307 306 307 307 307 308 308 308 308 308 308 309 310 310 310 309 310 310 310 310 310 314 315 313 313 313 313 313 313 313 313 313 313 313 313 314 314 315 314 315 315 314 314 314 316 316 313 314 317 314 311 311 312 314 315 313 314 314 314 313 312 314 314 314 314 313 313 315 316 315 316 315 315 315 314 315 314 315 315
306 306 306 306 306 306 306 306 306 306 307 306 307 307 307 307 307 307 308 308 309 310 310 310 309 310 310 310 310 310 312 313 313 312 313 313 312 313 313 313 313 313 313 313 314 315 315 315 315 315 315 314 313 313 315 314 314 320 318 312 312 312 313 314 313 314 314 314 313 313 314 313 314 315 313 313 315 316 315 316 315 315 315 314 315 314 314 314
306 306 306 306 306 306 306 307 307 306 307 307 307 307 307 307 307 307 308 309 309 310 309 309 309 309 310 310 310 310 311 312 313 312 313 313 313 313 313 313 313 314 314 312 313 314 315 315 315 315 315 314 314 314 314 315 315 319 318 313 313 313 313 314 313 313 314 313 314 314 314 313 314 314 312 314 316 315 315 315 315 315 315 315 315 315 314 314
308 308 308 308 308 308 307 308 308 308 307 307 307 307 307 307 308 308 308 308 309 309 309 309 309 309 310 309 310 311 311 311 312 313 313 313 313 313 313 313 315 316 315 314 314 315 315 315 315 315 315 313 314 314 313 316 316 315 315 314 314 314 314 314 314 313 313 314 314 314 314 313 313 312 313 315 315 315 315 314 315 315 314 315 315 314 314 314
310 310 310 310 310 309 309 309 309 309 309 309 309 308 308 308 308 308 308 308 309 309 309 309 309 309 309 309 310 311 311 312 312 313 313 313 313 312 313 314 316 317 316 315 315 315 315 315 316 316 315 315 314 313 313 316 316 313 314 314 314 314 314 315 315 314 314 313 313 314 315 313 311 312 315 316 315 315 315 314 314 315 314 315 315 314 314 314
310 310 310 310 310 310 309 309 309 309 309 309 309 309 309 309 308 308 308 309 308 309 309 309 309 309 309 310 310 310 313 314 313 313 313 313 313 313 314 315 316 317 317 316 316 315 315 316 317 316 317 316 315 314 313 314 314 313 314 315 314 313 314 314 314 314 315 314 314 314 313 312 312 313 315 314 315 315 314 315 314 314 315 314 315 315 314 314
309 309 309 309 309 308 308 308 308 308 308 308 308 308 308 309 309 309 309 309 309 309 309 309 309 309 309 309 310 311 314 316 314 313 313 313 313 313 314 315 316 317 318 317 316 316 315 316 316 317 317 315 315 315 314 314 314 314 315 317 319 319 318 314 312 313 313 315 313 313 314 315 314 314 315 314 314 315 314 315 314 314 314 314 315 314 314 314
309 309 308 308 308 307 307 307 307 307 308 308 308 308 308 308 308 308 309 309 310 309 309 309 309 309 309 309 311 311 312 314 315 314 313 313 313 314 314 314 316 317 318 317 317 316 315 317 316 317 316 315 315 314 315 313 312 316 313 316 323 324 323 313 309 312 312 314 313 313 318 323 321 314 313 314 314 315 314 314 314 314 314 314 314 314 314 314
308 308 307 307 307 307 307 307 307 307 307 308 308 308 308 308 308 308 308 308 309 309 310 310 309 309 309 310 311 312 311 311 314 314 313 313 313 314 313 314 315 316 318 318 317 316 316 317 317 317 315 316 315 313 319 317 316 320 312 319 325 319 326 319 308 311 313 313 312 314 318 322 323 316 312 313 313 314 314 314 314 314 314 314 314 314 313 314
308 308 307 307 307 307 307 307 307 307 307 307 307 308 308 308 308 308 308 307 308 308 309 310 309 310 309 310 310 311 311 310 312 314 314 314 313 314 313 314 315 316 318 318 317 317 316 317 316 317 315 315 315 316 326 324 324 325 314 324 326 316 329 328 309 309 315 313 310 314 319 319 320 315 312 312 312 313 313 314 314 314 314 313 313 314 313 314
308 309 308 308 307 307 307 307 307 307 307 307 307 307 307 308 308 308 308 308 307 307 308 309 309 309 310 310 310 311 311 310 311 313 315 314 313 314 314 314 314 316 318 317 317 317 317 317 316 315 314 315 320 328 334 326 327 329 318 322 326 318 325 325 312 308 310 312 311 313 319 322 320 313 311 312 311 312 312 313 314 313 314 314 313 314 314 314
309 308 308 309 308 308 307 307 307 306 306 306 306 306 306 307 307 307 308 307 307 307 307 309 310 309 310 311 312 312 312 311 310 311 315 314 313 314 314 314 315 316 317 318 317 316 317 317 315 315 315 315 320 329 331 322 325 329 318 319 325 322 320 321 321 312 307 312 314 313 315 318 318 312 311 312 312 311 311 313 314 314 314 313 314 313 314 314
313 309 308 308 308 309 308 308 308 307 307 307 306 306 307 307 307 307 307 306 306 307 307 310 310 310 311 311 312 313 313 312 311 312 314 315 314 315 314 314 315 315 317 317 316 317 316 315 316 319 319 318 319 323 324 322 328 331 324 323 324 321 317 321 324 314 309 313 315 315 315 315 316 312 311 312 311 311 312 313 314 313 314 313 313 313 314 314
317 313 309 307 308 308 308 308 308 308 308 307 307 307 306 307 307 307 307 306 307 309 310 310 310 311 314 312 311 312 313 313 312 312 314 316 315 315 314 314 315 316 315 317 317 315 315 315 318 321 321 320 319 320 321 321 325 330 331 331 328 322 320 322 325 316 310 314 316 316 316 315 315 314 312 311 311 310 311 312 312 313 313 313 314 314 314 314
320 317 313 309 307 307 308 308 308 308 308 307 307 306 307 307 307 308 307 306 307 309 311 312 310 311 313 313 311 311 313 313 313 313 314 316 316 315 315 314 315 315 315 319 320 313 314 318 321 323 322 321 319 317 319 320 321 323 326 328 325 322 321 322 324 315 308 313 320 317 315 316 315 315 313 310 310 309 309 309 311 313 313 314 314 314 315 315
322 320 317 313 310 307 307 307 307 308 307 307 306 306 307 307 308 309 309 308 307 307 309 311 311 310 311 313 313 312 313 313 313 314 314 315 316 315 315 314 316 318 314 314 315 312 315 319 322 323 319 316 317 317 318 319 319 320 322 322 321 322 322 319 319 315 309 313 321 318 315 315 314 314 311 308 309 309 308 308 310 313 313 314 314 314 316 315
324 322 320 317 314 311 308 307 307 307 307 306 306 306 307 307 308 310 311 310 310 308 307 308 310 311 311 312 313 313 313 314 314 315 315 315 316 315 314 316 319 320 315 312 315 316 318 320 320 317 312 313 317 316 316 317 317 320 322 319 320 322 320 319 317 315 311 313 321 320 316 315 314 313 310 308 308 309 311 311 312 314 313 313 315 315 315 315
325 323 321 320 318 315 312 309 308 307 307 306 306 306 307 308 308 309 311 312 312 311 309 308 308 309 310 311 312 313 313 315 315 315 315 314 315 314 313 316 319 319 317 316 319 319 320 323 318 311 310 315 319 315 314 316 316 319 321 319 322 320 319 321 319 314 312 313 318 318 315 314 314 313 312 310 309 310 312 313 313 312 312 313 314 315 315 315
325 324 323 321 319 318 316 313 311 310 308 307 307 306 307 309 308 309 310 311 312 312 310 310 309 308 309 310 310 313 313 314 314 314 315 315 314 314 313 314 317 318 317 316 318 318 320 319 312 309 313 317 319 317 316 318 319 320 320 318 320 320 319 320 319 317 316 316 315 316 318 320 319 316 316 314 311 310 312 312 312 312 313 313 313 313 314 314
324 325 324 322 320 319 318 315 314 313 310 309 308 307 306 308 309 310 311 313 315 314 311 311 311 310 309 309 310 312 314 314 314 314 315 314 314 314 313 313 315 318 317 315 315 316 317 313 310 314 315 316 319 319 319 320 321 324 323 319 318 320 319 318 318 317 321 325 317 314 322 331 329 322 318 318 317 315 313 310 311 314 314 313 313 315 315 313
324 324 324 324 322 320 318 316 316 315 313 312 310 308 307 308 310 312 314 318 319 316 314 313 312 312 310 310 311 312 313 314 314 314 315 314 314 314 314 313 312 315 315 315 314 315 315 311 314 321 317 315 317 317 319 319 319 323 322 318 317 316 317 318 317 317 324 327 316 312 321 327 325 321 319 322 324 323 319 313 311 314 315 314 315 317 316 314
324 324 324 324 323 322 319 317 318 317 315 315 313 309 308 309 313 312 316 323 321 316 316 314 312 313 311 311 311 311 313 314 314 315 315 315 314 313 315 314 312 313 311 313 316 315 314 313 316 321 319 318 317 318 320 316 320 325 318 316 318 316 317 318 316 318 323 322 316 317 321 321 321 320 320 322 323 323 321 318 314 312 315 317 317 318 317 316
324 324 324 323 323 323 321 319 319 318 317 317 314 311 310 310 314 315 319 324 321 316 316 314 311 312 312 312 312 311 312 313 314 316 315 315 314 313 315 315 314 315 311 313 318 313 313 318 318 317 319 319 319 324 321 315 320 323 314 314 318 318 318 318 317 318 318 318 320 322 319 319 323 323 319 318 321 323 323 322 318 313 316 317 317 318 318 318
323 324 324 323 322 323 323 321 320 319 318 318 316 313 310 312 315 317 321 323 320 316 315 314 313 312 312 312 312 310 311 312 313 315 314 314 314 313 315 313 312 314 311 311 318 314 311 315 314 315 319 318 321 322 316 316 319 314 310 315 318 318 319 320 321 321 320 320 322 323 321 319 322 324 323 320 321 327 325 322 318 314 315 317 316 318 318 318
322 323 323 323 322 321 322 322 321 320 318 318 317 313 311 315 317 319 321 323 320 317 313 313 314 312 312 313 312 311 311 312 313 314 313 313 314 312 313 312 311 316 315 313 317 315 310 310 310 313 316 315 318 314 308 312 314 310 315 323 322 323 323 323 324 321 323 324 321 322 322 320 321 323 325 324 323 326 325 322 322 316 314 316 317 318 318 317
321 321 322 322 322 321 321 321 322 321 318 318 316 312 313 317 318 322 323 319 318 317 313 313 314 312 313 314 313 312 312 312 312 313 314 313 314 313 313 313 313 318 319 317 318 315 311 313 313 312 311 311 316 315 309 309 309 313 327 328 323 326 324 323 325 323 325 325 319 319 319 317 321 323 324 324 322 323 323 324 329 323 315 316 317 317 317 316
319 320 321 321 321 321 320 321 322 321 319 317 314 312 315 317 318 322 322 318 319 320 316 317 315 313 314 314 314 313 313 314 312 313 316 315 315 314 314 316 316 318 318 317 318 315 314 317 314 312 311 311 319 321 315 312 312 318 327 324 321 325 324 323 325 323 325 322 315 315 318 317 319 321 321 322 322 323 319 316 321 319 314 317 318 316 315 315
316 318 319 319 319 320 320 320 321 320 319 315 312 312 315 318 320 322 322 321 321 318 316 318 316 314 314 314 315 313 313 316 313 313 315 314 315 314 314 317 316 317 320 316 315 316 318 317 313 314 314 313 317 320 318 318 317 318 322 323 323 324 326 330 327 320 321 321 314 312 317 319 321 321 320 319 317 318 315 311 314 315 315 318 317 315 314 313
314 315 317 318 318 319 319 319 319 320 318 314 312 314 315 318 321 321 322 322 321 317 317 317 315 314 314 316 318 314 313 316 314 314 315 315 317 316 316 317 314 317 323 318 314 317 318 317 316 316 315 314 315 316 320 322 317 315 319 322 323 325 329 333 331 325 322 324 319 312 317 325 326 323 319 314 310 311 313 314 314 314 316 317 316 315 313 311
313 314 315 316 318 318 318 319 319 319 318 314 313 314 315 318 320 320 321 321 321 320 317 314 315 315 315 317 318 314 313 316 314 315 316 315 317 316 315 316 313 317 321 317 316 317 315 319 321 315 312 314 315 313 317 320 317 315 318 321 321 323 324 321 321 321 320 322 322 318 320 324 323 322 317 312 312 311 311 312 313 314 317 317 316 315 312 311
312 312 314 315 317 318 318 318 318 318 316 313 313 315 316 318 319 319 319 319 321 320 317 316 318 318 317 317 317 314 313 316 315 315 316 315 316 316 315 315 313 314 315 313 318 319 316 320 318 311 311 313 313 313 313 315 317 316 316 320 319 316 318 319 316 313 314 318 321 321 322 322 320 321 318 317 319 317 314 313 311 313 317 316 316 315 312 312
311 311 312 314 315 317 318 317 317 317 315 313 314 315 315 316 318 319 318 317 318 317 316 318 319 318 318 317 317 316 314 316 316 315 316 315 317 317 316 316 313 312 313 312 317 320 318 321 317 312 315 312 308 311 311 308 314 319 319 320 315 313 318 323 321 320 320 321 322 321 320 320 320 320 319 317 319 319 319 317 311 311 313 313 315 316 314 314
312 311 311 312 313 315 317 317 316 316 315 313 314 315 314 315 316 317 317 316 316 316 318 320 319 318 318 317 318 316 315 317 316 315 316 315 316 317 315 316 314 312 312 311 315 319 317 319 318 312 315 313 308 312 315 310 311 316 319 317 317 322 323 321 322 325 325 324 325 323 320 318 319 320 321 320 323 326 322 317 314 312 311 312 316 316 314 315
313 312 311 311 311 313 315 317 316 315 315 314 313 314 315 315 314 315 316 315 316 318 319 320 319 318 318 318 318 316 315 317 316 315 317 315 316 316 313 315 315 311 311 310 314 319 316 317 320 312 311 313 312 315 319 317 312 311 314 313 316 323 322 321 321 322 324 325 326 326 323 321 320 322 324 322 325 330 324 321 321 315 310 313 316 315 315 316
312 312 312 311 310 311 313 315 315 315 316 315 313 313 314 314 314 314 316 316 317 318 319 320 321 320 319 317 318 317 316 316 315 315 317 316 316 317 313 314 316 313 311 310 313 317 316 316 319 314 310 313 317 317 317 318 315 314 316 316 316 318 318 321 320 318 324 327 326 325 323 323 325 324 325 324 325 327 326 329 326 314 312 316 315 314 316 316
313 313 312 312 311 310 313 315 314 315 316 315 313 312 312 314 314 313 313 314 316 316 316 318 321 320 319 317 317 317 316 317 316 316 317 316 316 318 316 313 315 314 312 312 314 315 316 317 319 318 315 316 319 316 313 315 317 316 317 317 317 317 318 320 318 318 322 323 324 325 322 323 327 322 323 329 330 323 318 319 317 313 314 316 314 314 316 316
312 312 312 312 311 311 313 314 313 314 315 315 313 312 312 313 314 314 313 314 315 316 315 317 318 318 318 318 317 318 317 317 316 316 317 316 316 318 316 312 312 313 312 314 314 313 317 321 320 319 318 317 317 311 306 310 315 315 316 316 316 316 318 320 320 320 321 320 320 321 321 322 321 319 323 324 319 312 309 309 310 313 316 316 314 315 316 315
311 312 312 312 311 311 313 314 313 313 314 314 314 313 312 313 314 314 315 314 315 316 316 317 317 317 318 318 317 317 317 317 317 316 316 317 316 315 314 312 312 312 313 316 316 313 315 320 318 318 320 319 317 313 308 308 312 314 316 317 316 316 316 320 322 321 321 321 320 319 321 321 317 316 314 308 305 306 307 308 308 312 316 316 314 315 315 316
310 311 311 312 312 312 313 314 314 314 314 314 314 313 312 312 313 314 315 315 315 316 317 318 318 317 318 319 317 317 317 318 318 317 316 318 318 314 312 312 312 313 314 316 316 314 315 318 318 319 322 321 320 318 314 312 312 316 319 317 316 316 317 318 320 320 321 322 320 320 321 319 317 316 311 308 311 311 308 308 309 310 315 316 315 315 315 316
308 309 309 311 313 314 313 313 313 313 313 314 314 314 313 312 312 313 315 315 314 315 317 318 317 316 317 317 317 316 317 318 319 318 317 319 318 313 311 312 312 313 314 314 314 314 317 319 317 317 321 322 321 321 319 316 314 316 319 317 315 316 317 317 318 319 320 321 320 320 321 319 318 317 314 314 319 318 311 309 310 311 314 315 315 315 315 316
307 308 309 310 312 313 313 312 312 312 313 314 314 314 313 313 313 312 313 314 314 314 316 317 316 316 317 317 317 317 317 317 319 320 318 320 320 314 310 311 312 312 313 314 314 315 318 319 317 317 320 320 321 323 321 319 316 316 317 317 315 315 315 316 318 319 319 319 319 319 319 319 319 318 319 319 321 323 318 311 310 313 315 315 315 315 315 316
307 308 309 311 313 313 313 312 312 312 312 313 314 314 314 314 313 313 313 314 314 314 315 315 316 317 318 318 318 318 318 317 318 319 318 319 319 316 310 309 310 310 312 313 314 314 317 319 318 318 318 317 321 324 320 318 318 317 317 316 315 314 315 316 318 318 319 319 320 319 318 319 319 318 321 323 322 324 319 311 311 314 314 314 315 315 315 315
306 307 308 309 310 311 312 312 311 311 312 312 313 313 314 314 314 313 313 313 313 314 315 315 316 317 318 318 318 318 318 318 318 318 318 317 318 317 314 311 309 309 310 311 311 313 317 319 318 318 318 316 318 321 319 319 318 317 317 317 316 314 314 316 316 317 318 319 319 319 319 320 318 316 319 321 319 319 317 314 314 315 315 316 316 315 316 316
305 306 307 307 307 307 307 307 307 308 311 312 312 313 313 314 314 313 313 313 313 313 315 316 316 316 317 317 318 318 318 319 319 318 318 317 318 318 318 316 312 307 307 310 311 311 315 318 318 317 317 317 317 318 319 319 318 317 317 316 316 315 314 315 316 316 317 318 318 318 320 320 318 318 320 318 315 314 314 315 315 315 316 317 316 316 316 315
303 305 306 305 305 305 304 304 305 306 307 309 311 312 312 313 314 313 313 313 313 313 314 315 315 315 316 317 317 318 318 318 319 318 317 318 318 317 318 319 316 309 307 310 312 311 313 317 318 316 317 317 317 317 318 318 318 318 317 315 315 315 314 314 315 315 316 317 317 317 319 318 316 317 319 316 314 314 314 313 314 315 316 316 315 315 314 314
302 304 305 305 305 305 305 305 305 306 306 306 308 310 312 313 313 313 313 312 313 313 313 314 315 315 315 316 316 317 317 317 318 317 317 317 317 316 316 316 316 315 310 309 311 312 313 315 317 316 317 318 318 318 317 315 315 316 317 317 315 314 314 314 314 315 315 316 317 317 318 318 316 317 316 314 314 313 312 312 313 315 316 315 314 314 314 314
301 302 304 305 305 306 306 306 306 307 307 307 307 308 310 311 310 310 312 313 312 312 313 313 314 314 314 315 316 316 316 316 316 316 315 315 315 315 315 313 313 315 313 310 312 313 313 314 315 316 318 319 319 319 316 315 315 317 317 317 316 314 314 314 314 315 315 315 317 317 317 316 317 318 317 317 318 314 311 312 315 315 315 315 314 314 314 315
Wind_Speed
13 12 12 11 11 10 10 9 9 8 8 8 8 8 8 9 9 9 9 10 10 9 9 8 7 5 4 3 3 3 3 3 4 4 4 3 3 3 3 3 3 3 3 3 3 3 2 3 3 2 1 1 3 4 6 5 4 3 3 4 2 4 4 6 8 7 4 3 7 10 11 7 5 8 8 5 5 7 10 12 11 13 16 13 10 9 12 17
13 12 12 11 12 11 10 10 9 9 8 8 8 9 9 9 9 9 10 10 10 9 9 8 6 5 4 3 3 3 4 4 5 5 4 4 4 3 2 1 1 2 2 2 3 3 3 3 3 1 1 2 4 4 4 4 5 3 3 3 3 6 4 5 9 9 4 1 8 11 10 9 6 10 10 4 4 6 6 9 11 12 15 14 13 12 14 18
13 13 12 12 11 11 10 10 9 9 9 9 9 9 9 9 10 9 10 10 10 9 9 8 6 5 4 3 3 3 4 5 5 5 5 5 4 5 5 3 2 2 1 2 2 3 3 3 1 0 2 4 5 4 4 5 3 2 4 2 5 7 3 4 8 10 6 1 8 11 9 8 7 9 10 5 3 4 7 10 12 14 16 15 14 14 15 18
14 13 12 11 10 10 10 9 9 9 9 9 9 9 10 10 10 10 10 10 10 9 9 7 6 5 4 3 3 3 3 4 3 4 5 6 6 9 7 4 2 3 3 3 3 3 2 2 1 1 4 4 5 4 4 6 3 1 4 3 5 5 2 3 6 7 8 4 7 11 8 6 7 9 9 7 4 4 12 17 17 15 14 14 16 15 16 18
12 11 10 10 10 10 9 9 9 9 9 9 9 9 10 10 10 10 10 10 10 9 9 7 6 5 4 4 3 2 1 2 2 3 4 6 9 11 7 4 1 2 4 5 4 3 1 1 1 1 4 3 5 5 4 7 4 3 2 2 3 6 1 2 3 5 8 6 8 10 7 6 8 8 10 10 7 7 11 15 17 16 12 12 15 16 17 18
10 9 9 9 9 9 9 9 9 9 9 9 9 9 9 10 10 10 10 10 10 9 8 6 6 5 4 4 3 3 1 1 2 4 5 7 10 10 8 4 4 4 5 5 4 2 1 1 1 2 4 3 4 4 4 6 2 2 2 0 4 3 1 1 3 5 7 8 11 10 7 7 8 6 9 14 15 14 10 8 10 13 13 13 14 16 17 18
10 10 10 9 9 9 8 8 8 8 8 8 8 9 9 9 9 9 9 9 10 9 7 6 6 5 5 4 4 3 4 2 3 5 6 8 8 8 7 4 5 6 6 5 4 1 1 1 2 4 5 3 2 2 5 6 4 4 1 1 3 2 2 1 3 5 6 7 10 8 6 6 8 6 5 14 22 20 16 13 11 11 13 15 15 17 18 18
10 10 10 10 10 9 9 8 8 8 8 8 8 8 8 8 8 8 8 9 9 8 7 7 6 6 5 5 4 4 6 4 4 6 6 7 7 6 6 4 5 5 4 4 4 1 0 1 4 5 4 3 2 1 4 4 5 5 2 0 2 1 2 3 3 5 4 4 5 5 5 5 7 7 6 17 22 19 20 19 16 14 13 15 17 18 18 19
10 10 10 10 10 9 9 9 8 8 8 8 8 8 8 8 8 8 8 8 8 8 7 7 6 6 5 5 4 4 5 6 6 8 7 7 6 4 4 4 3 3 2 2 2 1 1 2 4 3 3 3 4 2 4 3 2 2 3 1 1 1 0 3 4 4 4 3 4 5 5 3 5 5 10 21 23 19 20 18 18 16 15 16 17 18 19 19
10 10 10 10 10 9 9 9 9 9 8 8 8 8 8 7 7 7 8 8 8 8 8 7 7 6 6 6 3 2 4 6 7 9 8 7 6 4 4 3 2 1 1 1 2 1 2 2 4 5 5 5 5 3 5 3 2 2 3 2 1 1 1 3 5 4 4 4 5 6 4 4 3 2 8 16 18 19 20 18 18 17 16 17 17 18 19 20
10 10 10 10 10 9 9 9 9 9 8 8 8 8 8 8 7 7 8 7 7 7 8 8 7 7 7 6 5 4 3 4 7 11 9 7 7 5 4 3 1 0 1 2 2 2 3 3 5 6 3 3 4 4 4 4 4 3 3 1 1 4 3 5 6 6 5 4 6 6 3 4 1 3 11 14 12 15 17 18 18 18 17 17 18 19 20 20
11 10 10 10 10 10 9 9 9 8 8 7 7 7 7 7 8 8 8 8 8 8 8 9 8 8 7 7 10 9 5 3 6 11 10 8 8 7 5 4 1 1 1 2 2 2 4 4 4 2 2 6 4 3 4 4 3 4 5 1 5 8 5 4 4 6 6 2 3 4 2 5 3 10 17 14 13 15 15 17 18 18 19 18 19 20 21 21
12 12 11 11 11 11 10 10 9 9 8 8 7 7 6 7 7 8 9 9 9 9 9 9 9 9 7 8 10 11 9 7 6 11 12 10 9 8 6 4 3 2 1 1 2 2 3 3 2 3 5 6 3 4 5 4 3 2 5 2 3 8 5 3 0 3 6 3 4 6 3 6 7 16 18 13 13 14 16 19 19 20 20 20 21 22 22 22
13 13 13 13 12 12 12 11 10 10 9 8 8 8 7 7 7 8 8 9 10 10 10 10 9 9 8 8 9 9 11 10 9 11 13 12 11 9 7 5 4 3 3 2 2 2 3 4 3 4 5 5 5 7 4 4 4 1 2 2 3 2 5 5 1 5 5 4 7 7 3 7 8 13 13 13 14 14 18 20 20 21 21 22 23 23 24 24
15 15 14 14 14 14 13 12 11 11 10 9 9 9 9 8 9 8 8 8 9 10 10 10 9 8 7 9 10 10 11 12 12 13 14 14 13 11 9 6 6 5 4 3 2 3 3 3 3 3 5 5 7 6 3 4 4 3 1 3 3 1 5 8 2 8 5 2 7 7 3 7 9 10 8 11 15 15 19 20 20 22 22 24 25 25 26 25
15 16 16 16 16 16 15 14 13 12 12 11 11 11 10 10 10 9 9 9 9 9 9 8 8 7 4 6 9 9 12 14 14 15 16 16 14 13 10 7 7 6 5 4 3 3 2 1 2 4 4 4 5 4 4 3 4 4 1 3 2 2 3 6 2 6 3 2 4 4 3 5 5 4 3 6 14 17 19 21 21 23 24 25 25 26 27 26
11 15 17 18 18 18 17 17 16 15 14 13 13 13 12 12 11 11 10 9 8 8 7 6 5 6 5 7 8 9 12 15 15 16 17 16 15 14 10 8 7 7 6 5 4 3 2 1 3 2 2 3 3 4 4 2 4 4 2 1 3 2 2 3 4 3 1 2 3 3 4 8 7 6 5 4 10 15 19 22 23 23 25 25 26 27 28 28
7 10 14 17 19 19 19 19 18 17 16 15 15 14 14 13 12 11 9 9 8 6 5 6 4 1 6 11 11 9 10 13 15 16 17 17 16 14 11 8 7 6 5 5 4 3 1 1 3 1 3 3 2 5 3 4 4 3 2 1 3 2 2 4 5 2 3 1 3 3 5 11 13 14 17 14 11 16 21 23 23 24 26 26 27 29 29 30
6 8 10 14 17 19 20 19 19 18 17 16 15 15 14 12 10 10 9 9 9 5 2 9 12 4 2 10 14 12 9 8 12 15 17 17 17 15 10 7 6 5 5 3 2 2 2 2 4 1 1 2 4 7 7 8 6 6 6 4 4 3 3 5 6 5 3 2 4 7 7 11 12 13 18 19 15 18 22 22 24 27 28 28 29 31 32 32
9 8 9 11 14 16 17 18 18 18 16 16 15 14 11 7 3 5 10 13 16 14 7 8 16 10 2 2 9 13 10 8 11 15 18 18 17 14 10 8 6 4 4 3 2 1 3 2 2 5 8 8 9 8 6 5 6 6 5 4 4 3 5 5 5 5 2 3 6 8 8 10 12 12 16 16 11 15 20 23 28 31 31 32 33 34 35 35
11 11 10 10 11 13 14 15 16 15 15 15 15 12 9 8 4 2 8 13 17 21 16 9 12 14 9 3 4 8 10 9 11 15 17 18 17 12 9 8 5 2 2 3 4 2 3 3 7 10 9 6 7 7 6 5 5 5 5 3 2 3 6 6 4 4 0 3 5 5 6 10 11 13 17 13 7 13 22 23 28 34 34 35 36 37 38 37
13 13 13 12 12 12 12 13 13 14 14 14 15 13 11 11 10 6 4 6 11 17 21 19 16 16 16 12 8 8 9 7 9 15 18 18 18 12 9 8 5 3 1 4 5 1 1 4 11 11 4 6 4 5 6 5 4 4 3 2 2 3 5 6 4 5 1 3 4 4 5 9 11 12 16 16 14 19 27 28 32 36 34 36 38 39 39 38
15 15 15 15 13 12 12 12 13 13 13 14 15 15 13 11 11 9 5 4 8 11 17 22 23 22 20 17 14 12 11 8 8 16 19 20 19 14 12 9 5 4 3 4 6 4 3 6 11 8 8 7 4 4 7 5 2 2 3 3 3 3 2 4 4 4 0 3 2 3 5 7 9 11 13 21 23 24 31 34 36 37 35 38 40 39 40 40
17 17 18 17 16 15 14 12 13 13 13 14 15 15 14 11 9 8 5 3 5 8 12 17 21 25 26 20 17 15 14 12 10 15 21 23 20 13 11 10 6 4 4 7 8 6 7 6 3 5 8 7 4 4 6 5 2 3 5 6 5 4 6 6 4 4 2 2 3 3 6 5 7 11 11 13 12 17 27 31 34 38 38 40 41 41 42 42
19 19 19 19 18 17 15 14 14 14 13 14 14 13 14 12 7 4 3 1 4 5 8 12 15 20 25 22 20 16 12 13 14 15 21 27 24 13 7 9 7 4 6 7 5 6 9 5 3 6 5 6 6 4 5 7 3 5 5 10 10 8 7 5 3 5 4 4 4 3 4 6 4 8 10 6 3 9 18 19 26 36 36 37 40 43 45 42
22 21 20 20 20 19 17 15 14 13 13 13 11 12 14 11 6 4 3 3 4 3 3 8 9 10 16 19 21 15 5 10 16 18 21 27 26 14 6 6 4 3 7 6 3 3 5 3 5 6 5 6 5 3 5 7 5 3 5 8 10 7 4 4 0 2 1 4 4 3 1 7 5 6 10 5 4 11 12 12 21 31 32 33 38 40 40 39
25 23 21 22 23 23 20 16 15 16 13 11 11 12 12 10 7 5 4 4 4 5 6 8 9 9 11 15 24 18 2 5 12 17 23 26 24 15 7 5 3 2 6 6 2 3 3 5 4 5 5 5 5 4 6 8 7 3 4 4 6 6 5 5 4 3 4 3 4 3 2 5 6 8 8 3 7 11 11 12 17 26 34 36 36 36 35 35
28 26 23 23 25 26 23 19 20 19 14 12 12 13 12 11 10 6 4 1 3 5 5 6 8 10 10 16 27 18 5 8 9 12 24 27 23 13 6 8 6 5 7 7 4 3 3 7 8 8 5 4 6 5 8 11 5 5 2 5 6 6 5 4 5 4 2 3 5 3 2 4 8 6 4 1 5 9 12 14 14 22 33 34 32 32 32 32
27 27 26 26 26 26 24 24 25 21 16 13 11 13 14 14 10 5 3 2 2 3 3 6 8 8 11 16 21 13 6 6 3 9 22 23 22 10 2 8 8 6 7 6 5 2 1 4 7 8 6 6 5 2 7 11 5 4 6 7 6 5 5 5 4 3 2 2 6 6 5 3 7 4 2 1 3 7 11 11 12 21 29 28 26 27 25 25
25 26 27 26 27 28 26 28 29 22 19 16 12 15 19 16 8 4 3 3 2 2 3 7 7 9 14 12 8 5 4 2 4 13 15 13 17 8 4 6 6 5 2 5 4 3 1 1 2 4 4 5 5 3 2 6 6 8 7 6 6 6 5 3 2 4 2 4 5 7 10 6 6 3 4 4 4 7 8 7 10 17 24 23 20 19 17 17
21 21 24 27 31 32 30 32 33 26 22 19 17 22 22 11 3 4 7 1 1 2 4 4 4 9 15 10 5 5 3 1 7 13 8 5 9 5 4 5 3 4 2 6 5 3 2 1 1 3 3 5 8 5 4 4 6 7 4 4 4 4 4 4 4 4 0 5 3 3 5 7 8 6 4 5 5 5 7 7 9 12 17 16 10 9 11 12
22 20 22 26 32 34 33 36 33 27 25 21 23 28 17 4 2 6 5 2 1 4 5 4 3 7 10 6 5 7 4 2 6 9 6 4 6 7 6 6 5 3 2 7 4 3 2 4 3 1 3 6 6 5 4 4 2 4 4 6 4 3 3 3 3 1 3 7 3 0 1 4 9 8 8 10 11 10 11 13 15 14 17 17 12 11 12 12
21 23 22 21 27 33 35 37 33 27 25 23 27 23 8 3 7 8 7 3 1 3 3 3 3 5 9 6 3 5 3 2 6 5 3 4 5 7 6 5 6 3 2 6 2 1 3 6 2 1 3 8 8 6 3 1 3 5 5 6 4 2 1 3 3 1 5 6 3 1 2 3 6 5 10 15 15 16 17 21 23 21 22 23 20 18 16 14
18 21 22 20 21 26 31 35 34 29 26 25 24 13 4 5 4 6 11 6 1 2 3 4 6 6 7 5 3 6 4 3 6 5 3 5 5 6 6 6 7 3 3 4 2 5 5 6 5 6 4 10 12 8 7 6 5 6 4 5 5 5 5 4 4 4 5 5 4 2 1 4 3 3 7 11 12 15 20 25 24 23 25 25 24 24 20 16
17 18 20 20 20 23 28 34 36 32 29 30 19 6 7 7 3 5 9 5 0 2 3 3 7 6 5 3 2 6 5 3 5 5 4 6 6 7 7 8 11 6 5 4 2 4 5 7 7 3 2 12 12 6 7 8 2 3 3 4 3 5 5 2 3 5 2 3 4 2 4 5 4 6 8 8 10 11 15 21 22 26 30 27 27 27 21 17
18 19 20 21 23 23 27 35 37 33 32 28 10 4 9 8 4 5 6 6 5 4 5 3 4 4 5 3 2 5 2 1 5 5 3 5 5 7 7 7 12 12 9 8 2 2 3 5 5 1 0 6 7 4 5 4 3 2 3 4 4 4 6 2 2 1 4 3 5 2 5 6 3 7 8 6 9 9 9 13 17 26 30 27 29 28 22 20
18 20 22 25 25 22 24 33 37 34 34 23 6 7 8 5 6 5 3 5 7 8 8 4 3 5 6 4 4 6 3 1 4 5 4 3 3 7 8 5 9 16 15 9 3 3 5 4 5 1 2 4 1 4 4 2 4 5 4 6 3 1 2 3 2 2 3 4 5 1 5 6 3 5 4 1 7 10 10 10 13 20 23 24 29 28 23 23
16 19 24 28 26 23 22 27 32 34 30 15 6 8 5 5 9 6 3 5 7 9 8 7 6 6 7 7 5 6 6 3 5 5 4 4 5 8 10 5 7 17 21 13 3 3 4 2 5 1 2 3 2 4 2 4 3 4 4 6 4 2 2 2 2 2 1 3 5 4 5 4 4 5 2 2 8 11 11 10 9 12 17 22 28 26 22 21
14 15 19 23 24 23 21 22 31 35 21 6 7 8 4 7 8 6 10 9 6 8 9 8 6 4 5 7 4 6 8 7 8 7 5 5 5 7 13 11 8 14 22 18 7 2 3 3 4 1 1 1 2 2 4 1 1 3 2 3 2 2 4 3 3 3 3 3 3 4 5 5 6 6 6 9 11 10 8 8 7 12 19 25 26 22 19 18
14 11 12 17 18 18 20 23 30 27 10 4 8 5 1 4 5 8 14 10 3 5 7 7 6 5 5 6 4 4 7 6 7 7 5 6 5 4 10 12 5 5 15 17 9 1 3 4 4 2 3 1 2 5 8 9 6 3 4 5 3 1 2 1 1 2 4 3 1 2 6 9 5 4 7 10 10 9 9 7 7 13 20 23 20 17 14 13
15 9 8 13 13 13 20 21 19 13 5 5 7 5 4 3 3 10 17 12 4 3 4 3 4 4 3 4 4 4 6 6 7 6 4 6 7 5 8 15 11 8 8 9 8 6 4 4 4 2 1 4 5 4 5 8 8 7 8 8 9 6 4 3 3 1 2 3 4 3 6 11 6 4 6 7 6 7 9 7 8 14 18 17 14 11 10 9
14 8 6 10 12 15 22 15 7 7 6 7 9 7 5 2 1 7 14 14 10 6 5 3 3 4 2 3 5 4 6 6 7 8 6 8 11 7 9 17 20 19 13 6 9 10 4 3 4 4 4 6 5 3 2 3 3 3 4 5 7 7 7 6 6 4 3 2 1 4 3 11 5 5 5 5 4 6 7 9 12 16 15 12 10 8 7 6
13 12 10 11 15 21 21 7 5 8 5 7 10 7 6 5 3 5 9 12 10 6 6 4 4 6 6 4 5 5 6 5 6 8 7 7 11 9 8 16 20 17 11 3 4 5 3 2 4 3 2 3 4 3 1 2 2 2 3 2 5 8 8 6 4 5 4 4 3 3 4 10 4 1 3 4 4 8 9 11 15 16 12 9 8 6 4 5
15 17 15 13 20 26 18 5 5 9 7 8 6 5 8 8 6 7 7 8 8 4 4 4 4 7 7 4 5 7 9 6 5 8 7 5 6 7 10 18 18 12 9 6 6 10 7 3 5 4 2 3 4 3 2 1 2 3 4 4 7 10 8 3 1 3 2 8 10 6 8 11 4 2 2 2 5 8 10 11 13 14 11 7 6 5 2 5
12 14 15 16 25 29 20 12 10 7 8 10 7 5 8 6 8 14 12 8 9 7 4 4 4 5 5 3 3 5 8 8 5 5 6 5 3 2 8 19 21 15 11 6 7 13 10 4 7 9 7 9 8 6 6 4 3 2 4 6 8 11 11 6 3 3 6 10 10 7 11 11 3 3 2 3 4 6 9 10 11 13 12 8 7 6 4 7
7 6 7 10 23 30 26 23 18 8 6 11 8 6 10 7 6 15 16 11 11 11 7 3 4 5 3 3 3 4 7 9 6 3 4 5 4 1 4 14 20 18 11 3 6 10 3 2 8 11 13 15 11 5 4 8 7 7 10 12 11 12 14 11 6 7 10 8 5 10 16 16 10 4 4 6 6 6 7 7 11 15 13 10 9 8 9 12
7 4 6 6 13 20 20 20 17 10 8 11 7 5 12 11 5 7 12 12 13 14 8 2 5 6 5 7 7 6 8 8 5 5 5 5 4 2 1 6 12 14 9 4 9 9 2 3 9 12 15 17 11 4 7 10 12 15 15 14 13 13 13 12 12 15 12 5 8 16 15 15 20 14 7 7 7 5 6 9 15 16 12 10 13 15 18 21
11 5 10 11 6 7 10 12 12 11 12 12 7 5 11 14 10 7 9 10 12 14 9 3 7 11 11 12 10 7 8 7 6 7 7 5 3 2 1 2 7 12 8 2 5 7 2 5 8 9 14 18 14 6 7 9 10 12 15 16 16 15 15 17 20 21 15 9 14 18 11 13 24 18 10 11 10 8 11 15 17 15 15 19 22 24 26 26
14 7 9 11 6 3 4 5 4 5 10 11 9 9 11 13 15 12 8 6 6 11 12 9 11 16 15 13 10 8 9 8 8 9 9 8 7 4 4 4 5 8 7 2 1 3 3 4 6 6 9 17 17 8 7 8 7 7 12 15 16 17 20 22 24 23 18 14 18 18 10 15 21 13 8 13 18 21 20 18 18 19 22 26 27 28 28 26
13 10 8 6 5 4 4 3 1 2 3 7 7 10 12 13 16 13 10 10 7 8 13 16 16 16 15 14 12 11 12 11 11 12 11 10 9 7 7 6 2 3 5 4 2 2 4 5 3 3 4 12 15 9 7 9 8 7 8 10 13 17 21 23 22 18 15 15 20 19 14 17 14 5 7 14 18 20 18 16 19 22 25 26 28 29 28 26
20 16 12 5 3 5 5 4 2 1 2 3 3 5 9 12 14 11 10 16 17 11 12 18 20 15 12 14 15 15 17 17 18 19 17 15 13 9 8 6 4 5 5 5 3 3 4 4 1 3 5 11 14 12 9 7 5 6 7 10 15 18 17 16 15 14 14 16 18 16 14 17 11 5 7 11 12 13 14 16 21 26 28 28 28 28 28 29
26 24 22 12 5 6 6 3 4 5 5 4 5 5 6 6 5 5 7 13 20 22 20 20 18 13 10 13 18 24 29 26 24 22 17 16 14 9 8 8 7 7 6 4 2 3 5 4 3 4 7 12 12 9 8 5 3 7 11 17 21 17 11 9 11 15 17 15 13 12 14 19 15 7 8 9 8 9 14 20 26 30 30 28 27 28 31 32
Wind_Direction
198 198 198 197 196 198 199 202 205 210 218 225 228 227 225 221 215 211 205 200 198 197 198 200 207 216 225 240 252 271 264 256 251 247 269 265 255 269 262 262 275 281 272 260 243 243 277 298 288 279 274 92 80 76 82 76 81 92 97 94 150 178 193 189 178 187 164 191 204 186 183 170 160 174 177 177 179 190 190 196 206 213 220 231 240 233 217 211
205 204 204 201 201 203 203 206 209 212 217 220 223 223 222 217 214 212 206 203 201 201 202 203 212 223 234 247 260 277 272 268 256 250 259 246 236 220 195 187 293 305 291 282 259 260 281 291 289 279 251 105 66 63 85 56 56 77 103 103 199 195 201 192 177 187 165 112 185 179 184 186 179 174 171 178 189 181 194 213 219 224 225 230 234 223 212 211
206 207 207 206 208 209 208 210 211 213 214 215 217 215 214 212 212 211 208 206 204 205 204 208 220 230 242 252 267 286 286 277 261 253 241 230 212 180 163 144 94 46 12 348 306 288 281 283 296 45 96 92 56 64 76 41 46 64 96 109 233 209 218 205 186 198 203 161 168 173 185 191 190 179 179 192 187 193 216 217 218 226 228 229 226 217 213 212
206 208 210 211 213 213 209 208 208 210 209 210 210 208 209 208 209 211 210 209 207 207 204 212 225 235 248 254 273 291 304 294 252 240 232 219 190 173 167 163 111 42 21 11 356 337 303 280 266 79 79 74 35 57 50 25 37 62 103 162 222 186 178 211 205 215 212 204 177 174 170 191 200 189 193 182 153 245 237 226 226 234 238 233 225 218 217 216
205 207 207 208 209 208 204 202 202 203 203 204 204 205 207 207 210 211 211 211 208 205 205 216 228 238 250 253 274 266 342 10 215 209 207 194 179 178 180 189 245 342 353 357 357 359 339 277 191 79 65 52 21 46 25 18 66 73 48 227 163 140 121 208 197 198 197 195 179 169 161 190 193 196 210 193 188 238 243 240 238 240 245 242 235 228 222 220
196 195 196 199 199 198 197 198 199 198 199 198 198 201 205 208 210 210 212 210 207 205 209 220 230 243 251 254 273 241 195 61 169 172 162 174 178 185 194 223 268 292 312 334 347 5 35 27 139 83 60 48 20 50 30 13 59 89 8 292 149 142 29 157 177 174 181 182 176 172 182 191 180 207 228 215 226 238 245 254 244 241 240 240 241 235 231 228
184 183 186 190 190 191 191 194 195 196 197 196 195 197 201 205 207 208 209 206 206 207 214 225 234 245 254 258 265 250 242 225 167 169 162 170 180 192 205 245 275 284 292 306 323 342 40 8 128 102 78 66 40 59 25 20 54 97 90 40 170 234 321 172 183 171 169 181 183 180 192 196 190 211 242 234 242 246 248 252 249 250 243 240 238 235 236 234
183 183 185 187 189 190 191 192 194 196 198 199 199 197 197 199 201 203 203 204 207 211 221 229 236 245 256 262 265 271 254 230 195 190 177 176 184 197 218 261 287 292 286 288 313 302 26 35 139 117 94 84 111 70 17 38 45 61 129 229 157 227 274 194 190 180 176 191 196 196 204 214 214 223 256 249 251 252 252 253 253 254 249 245 240 235 235 232
192 192 192 194 195 196 198 199 199 201 202 205 207 205 203 200 200 201 202 206 212 219 228 230 239 248 255 261 273 292 254 229 217 203 187 187 190 199 231 262 285 300 295 288 327 227 203 149 153 141 141 135 112 61 31 64 14 44 127 150 131 66 328 198 207 198 207 221 209 219 230 246 230 243 265 254 254 256 255 256 254 253 248 244 240 236 233 233
204 203 204 206 206 208 210 210 210 210 209 210 213 215 216 211 208 208 208 212 218 226 233 236 242 245 252 261 263 274 243 230 217 202 194 198 197 202 228 246 279 324 24 46 39 123 170 155 154 136 130 127 101 55 32 66 127 94 99 113 123 345 306 228 228 229 233 244 234 224 240 262 222 203 257 253 251 251 252 253 252 249 245 240 236 235 232 232
216 213 213 213 213 214 215 216 218 218 218 218 218 220 224 225 223 221 220 220 225 231 236 241 245 246 252 254 230 212 233 241 214 200 198 203 200 204 216 220 265 332 73 77 80 115 137 135 144 140 125 129 107 62 52 79 107 70 51 186 322 343 297 244 236 236 227 251 248 223 248 278 172 192 243 248 249 248 248 248 249 246 242 237 233 233 233 233
228 225 222 220 219 218 217 218 219 222 227 229 228 228 229 233 234 235 235 232 233 236 239 243 244 245 250 251 243 235 243 259 211 200 202 206 202 203 211 214 232 225 147 93 112 129 133 134 144 161 137 144 137 73 86 89 88 56 53 234 310 356 338 250 234 224 202 223 234 183 284 278 206 229 242 247 247 245 244 243 245 243 240 237 234 233 233 235
235 233 232 231 228 225 224 223 224 227 230 235 239 240 240 242 245 246 245 243 242 240 241 244 244 246 249 252 253 246 242 245 218 203 204 208 207 204 206 209 218 222 203 134 132 137 142 138 134 148 136 139 141 119 122 77 70 56 49 61 327 360 337 280 281 194 181 190 169 142 272 267 235 243 243 246 244 235 236 238 240 240 239 238 236 236 236 236
243 241 239 237 236 235 233 231 232 233 235 239 243 245 249 250 252 254 253 252 248 246 244 245 246 246 247 248 254 248 237 234 222 209 208 211 210 207 206 208 216 217 213 178 129 143 141 117 111 131 123 119 127 126 102 29 44 26 16 30 21 11 285 297 10 155 159 201 173 144 255 264 262 261 248 241 240 232 235 239 240 241 241 241 241 241 241 240
250 248 245 242 241 239 239 238 237 239 241 245 250 253 255 255 257 257 258 257 252 250 247 245 247 244 251 254 250 246 236 230 222 215 212 213 213 212 209 209 212 212 210 200 163 160 142 120 120 107 100 109 122 112 31 2 22 29 359 310 350 160 266 308 273 170 155 192 171 150 250 270 274 279 265 236 228 227 235 241 243 244 244 244 244 245 247 247
252 252 251 249 246 244 243 243 242 243 244 250 256 260 262 262 263 263 261 260 254 250 245 245 243 233 248 261 248 245 238 229 223 217 214 214 214 212 209 210 212 211 207 204 195 180 174 156 109 82 98 120 113 88 44 14 346 2 72 247 270 170 271 318 294 196 167 113 175 193 248 279 280 283 300 224 220 223 232 242 244 246 249 247 248 249 251 252
253 251 251 250 249 248 246 246 246 245 246 251 256 259 264 265 266 266 262 259 253 244 235 231 232 229 246 256 246 243 234 226 222 218 213 213 213 211 211 211 208 211 207 204 208 197 216 184 126 93 70 76 87 91 62 333 294 318 14 242 237 203 217 301 314 254 150 107 211 228 237 257 264 270 287 257 229 225 230 244 248 248 251 250 250 251 252 253
256 252 251 249 249 249 247 248 248 247 248 251 255 257 259 262 265 266 260 252 241 229 227 207 178 209 248 238 232 231 230 225 221 215 210 209 210 211 213 210 206 210 199 198 212 199 209 86 106 76 14 22 58 104 137 226 212 199 186 201 248 243 222 255 287 246 145 106 229 217 242 258 267 273 272 267 246 233 238 248 252 252 253 252 252 251 252 253
260 258 253 250 249 248 247 248 247 247 248 249 252 253 256 260 261 259 250 238 215 186 215 206 188 155 217 223 224 228 232 222 214 211 208 206 208 210 208 202 199 187 160 161 212 167 132 88 81 77 252 227 196 167 189 201 164 161 169 154 179 219 254 237 250 252 180 157 235 225 235 254 264 271 270 266 248 238 247 253 255 256 255 253 252 253 252 252
261 265 261 257 252 250 249 247 246 246 244 245 246 245 247 237 240 260 234 225 219 211 217 211 202 199 145 180 219 224 225 215 209 207 205 205 206 204 195 185 172 159 148 152 186 119 111 135 157 212 221 212 203 189 174 148 125 121 126 136 178 204 268 252 253 285 200 173 249 232 231 255 261 265 268 267 248 237 245 250 253 255 255 254 254 254 254 254
258 263 265 265 258 255 252 248 246 242 239 240 236 232 226 204 193 263 227 228 236 229 229 231 214 214 223 244 221 209 208 205 205 204 202 203 200 194 188 172 142 148 204 130 117 87 106 160 223 228 221 202 192 170 135 116 106 94 122 171 238 211 255 254 245 302 208 176 267 260 247 259 258 262 268 267 235 234 242 243 250 254 255 256 256 257 257 257
252 257 261 266 266 262 256 251 247 241 236 233 228 223 223 222 222 236 242 254 259 242 235 235 232 226 227 235 237 211 197 194 201 202 198 194 192 191 181 160 142 167 164 100 100 65 112 222 242 233 169 101 107 140 142 134 110 94 118 155 258 242 273 284 288 326 23 186 272 303 270 264 264 264 267 261 244 247 251 249 253 256 255 256 257 259 260 259
245 251 255 259 265 266 260 253 247 243 237 232 229 221 222 230 229 235 257 293 281 258 239 235 236 234 228 229 233 218 200 199 201 198 194 189 187 188 175 158 151 144 130 158 162 163 193 243 249 218 149 116 77 103 122 111 113 149 144 157 239 238 265 282 292 326 304 204 279 306 286 276 271 268 264 257 249 252 259 257 258 258 255 258 259 261 262 260
240 244 249 251 255 260 260 253 246 243 237 234 233 224 221 226 225 233 247 280 289 263 244 238 236 235 231 228 229 220 209 214 212 198 195 188 179 178 180 169 147 135 177 194 181 189 222 251 248 160 159 156 127 114 130 139 233 246 195 194 220 222 216 233 287 328 320 333 8 340 301 278 253 257 259 262 257 254 258 259 261 259 257 259 260 260 259 259
233 236 242 244 247 251 253 250 244 242 236 236 235 222 220 223 219 222 216 285 299 270 251 238 232 236 231 225 223 214 208 223 223 207 198 193 183 169 172 173 158 179 200 185 179 231 248 252 114 124 167 164 144 159 172 164 203 280 231 206 215 219 226 248 340 6 352 329 344 16 304 280 268 261 259 276 318 266 259 259 259 261 260 258 258 259 258 256
228 233 237 240 243 244 243 243 241 240 236 236 232 217 218 216 201 193 148 45 300 247 209 209 212 225 219 213 204 191 207 241 223 211 200 197 193 175 152 162 152 194 183 157 175 245 241 204 120 126 164 166 160 205 216 175 156 277 253 207 212 210 219 251 217 61 281 262 299 55 217 276 293 265 261 257 257 264 263 260 259 262 262 257 257 261 259 257
225 229 234 238 240 238 236 237 240 238 229 229 223 211 213 201 176 169 120 27 285 195 149 177 184 190 199 195 185 176 195 214 192 202 198 194 195 186 176 170 123 180 159 129 226 251 166 165 135 125 131 146 178 219 219 171 147 240 262 166 174 181 198 217 166 187 241 261 313 31 136 276 277 257 272 232 225 266 269 262 264 262 261 259 259 262 262 261
225 225 228 233 239 240 238 239 243 239 228 229 219 203 199 184 170 145 109 350 256 147 143 175 168 178 184 179 181 176 136 141 148 195 194 189 193 189 197 196 165 176 171 149 213 260 139 176 191 168 150 180 201 216 188 160 157 247 231 116 134 154 162 138 131 192 294 9 300 293 131 277 269 251 323 360 219 260 261 255 259 258 258 260 262 265 267 267
226 225 224 228 237 241 240 237 238 239 232 228 212 194 183 169 157 108 86 226 194 121 151 166 158 171 158 162 185 183 133 135 113 177 181 184 191 187 194 199 169 157 191 198 223 267 85 195 201 167 167 205 206 235 178 166 182 197 136 93 83 79 82 87 112 141 46 342 253 226 163 253 274 221 111 41 221 240 250 252 254 257 260 263 266 270 273 272
225 226 225 228 231 231 233 235 233 231 225 218 205 184 171 159 139 118 185 218 180 118 130 157 171 168 148 148 194 202 140 115 102 143 162 178 186 178 110 159 150 124 204 287 266 247 343 28 188 168 184 182 133 70 139 152 146 139 114 68 53 36 44 54 51 86 47 284 249 210 181 192 274 257 177 204 216 217 231 251 260 262 264 265 269 274 275 273
231 230 228 231 233 229 228 232 231 223 214 212 196 175 164 150 111 184 201 205 45 138 126 159 179 153 153 153 180 191 149 80 135 145 150 164 175 166 115 138 128 83 10 295 277 290 331 11 238 213 182 132 103 68 34 71 114 116 91 79 69 347 12 27 354 52 166 260 266 242 187 184 240 257 226 244 263 236 216 234 253 261 264 264 270 283 281 277
242 236 230 232 237 237 231 233 236 223 211 207 185 168 156 142 223 214 204 81 57 197 162 176 187 159 164 160 170 175 146 126 165 161 155 146 166 183 184 182 163 104 269 239 249 341 281 239 261 279 193 166 120 77 39 24 58 94 97 112 102 325 354 349 304 68 238 254 262 296 156 212 243 249 249 256 265 250 225 228 238 252 270 276 279 286 284 280
246 239 238 235 237 241 237 238 240 225 213 201 176 161 149 202 200 207 205 169 186 211 140 126 127 141 154 153 187 171 131 178 178 168 160 140 168 205 226 222 182 158 196 197 203 305 272 290 270 149 231 197 165 150 166 207 180 162 147 145 148 150 156 269 269 275 270 269 277 175 159 250 267 260 238 237 245 246 239 242 246 255 270 277 279 281 279 274
247 245 246 245 245 244 241 241 238 231 217 189 168 157 184 214 190 196 211 217 303 28 48 97 106 121 157 171 210 167 149 225 176 151 152 142 164 211 229 232 209 159 98 149 174 181 219 282 212 180 198 185 185 194 171 137 158 186 157 141 162 165 172 216 220 227 263 287 293 275 187 208 214 262 243 238 259 261 250 250 255 261 265 269 276 278 275 272
245 249 244 244 246 242 241 238 236 233 210 178 163 166 191 199 196 202 211 213 216 41 32 73 104 124 193 257 273 184 175 223 175 146 162 169 187 204 198 208 201 169 141 183 220 163 201 262 239 220 165 168 183 194 131 109 139 218 125 122 198 190 161 183 208 185 188 313 299 240 227 218 208 272 269 253 273 274 255 252 256 260 261 265 272 274 274 276
242 244 242 242 237 235 237 232 230 227 199 172 160 207 197 202 190 182 196 183 175 137 104 82 86 126 203 239 258 217 205 134 156 154 194 202 218 210 201 211 197 185 182 184 188 136 177 270 280 331 99 179 190 177 133 143 187 167 139 179 216 175 131 120 254 62 74 272 272 209 248 285 319 283 268 248 264 278 276 263 252 251 255 261 267 269 277 281
241 239 241 240 234 234 235 227 225 216 190 173 183 209 199 224 192 166 187 170 154 143 142 169 181 167 191 202 210 208 198 90 155 172 195 196 242 214 206 230 197 193 201 192 197 196 170 257 285 144 196 255 228 116 91 63 126 127 182 200 171 99 91 109 223 349 41 255 271 249 253 285 313 278 296 328 260 261 259 254 249 251 255 260 262 266 277 282
245 248 247 244 239 235 231 229 223 206 187 176 210 209 199 223 205 179 171 160 139 153 179 209 197 178 186 193 202 186 174 177 175 186 189 182 243 212 187 210 201 198 206 196 206 248 163 237 292 97 186 280 39 120 107 13 81 126 180 181 134 139 211 126 165 208 184 252 279 295 283 268 213 232 267 205 228 239 244 245 248 255 253 253 258 264 273 279
241 253 255 249 241 232 230 231 217 201 190 184 210 210 205 211 209 177 171 181 173 173 199 217 197 177 184 182 173 164 180 190 171 177 189 183 233 210 181 195 208 201 199 188 191 243 140 200 269 321 238 300 44 164 190 199 38 58 100 156 131 144 177 165 158 171 176 231 276 316 320 277 217 204 199 212 222 221 233 242 235 240 243 245 252 260 269 279
231 241 260 252 241 231 226 221 207 197 198 217 205 209 208 202 214 204 198 199 179 172 207 217 185 177 191 178 157 166 191 198 175 184 207 192 218 238 190 189 181 177 187 184 191 191 117 207 242 329 337 211 185 213 196 181 172 152 156 176 188 114 114 160 167 131 139 156 205 292 293 272 239 181 188 212 227 216 212 224 229 233 238 243 248 256 271 289
227 227 247 240 237 223 205 200 198 200 216 217 214 232 230 214 208 217 224 230 237 216 222 212 170 174 181 173 185 185 182 190 183 190 222 205 212 242 202 186 165 135 153 177 199 199 180 198 194 176 218 206 221 243 213 197 188 180 185 190 187 168 138 170 221 210 136 158 179 185 267 270 243 176 201 211 222 225 208 208 240 240 238 244 249 255 277 299
228 236 238 223 228 204 186 185 203 214 216 213 216 216 206 216 183 197 211 216 221 229 225 212 177 174 177 196 209 188 170 189 189 189 212 215 212 222 202 187 172 156 150 172 205 197 164 120 172 202 213 215 238 263 220 221 207 187 200 192 181 175 167 179 208 210 169 207 172 120 262 272 240 167 209 216 224 258 233 212 238 248 243 249 257 260 281 309
232 249 245 223 219 200 182 181 224 210 222 230 218 198 177 197 202 182 188 195 202 209 206 209 188 189 203 202 194 184 182 200 202 200 219 228 223 228 204 183 172 159 154 175 211 180 123 114 198 232 319 301 305 330 12 66 101 202 240 168 169 196 194 182 192 181 164 202 185 123 243 262 264 185 232 248 267 284 269 231 233 247 248 249 257 261 281 328
236 248 249 226 207 195 186 189 209 207 227 234 224 191 189 206 206 193 192 190 190 186 197 216 203 201 210 184 175 195 196 199 213 212 218 236 232 227 204 187 176 168 180 191 178 169 168 189 195 191 316 318 326 327 289 242 171 203 219 188 190 198 185 138 131 148 180 213 190 175 238 247 275 337 301 315 308 292 276 251 241 249 249 241 245 246 273 329
238 247 251 232 205 195 198 211 209 213 220 221 232 200 193 215 211 207 212 199 189 188 197 214 199 192 198 169 174 207 200 202 220 215 215 245 268 249 206 195 187 190 208 211 172 170 176 197 187 187 213 223 223 232 222 196 168 197 204 193 196 190 179 181 192 181 225 224 192 189 240 247 298 8 275 288 305 287 270 254 243 245 240 230 235 244 276 307
223 227 238 225 206 204 215 220 216 222 216 213 226 207 201 220 214 208 211 203 195 199 202 199 175 167 160 161 185 214 214 217 218 193 201 229 243 290 211 201 197 202 213 207 159 161 158 259 204 201 216 220 221 220 155 129 142 203 211 194 196 197 190 191 197 206 220 225 206 217 234 251 266 252 243 267 258 252 267 258 241 238 231 228 244 265 284 292
211 202 199 199 206 212 221 222 215 219 216 208 206 197 207 216 219 205 204 203 201 200 207 215 177 181 180 185 202 220 218 217 209 201 212 218 233 292 235 202 212 220 225 190 162 152 96 258 218 220 231 234 236 198 151 148 168 200 207 195 198 200 190 193 209 219 213 194 236 233 222 245 258 243 219 248 249 243 263 251 238 235 237 251 269 279 283 285
219 215 210 203 198 212 222 219 213 218 220 213 205 212 214 211 214 208 197 207 209 200 205 228 202 204 200 193 201 215 213 214 215 216 224 223 229 296 305 227 222 217 214 187 156 147 145 232 219 221 235 245 248 209 170 178 180 195 202 197 197 193 188 199 216 223 212 193 239 243 201 216 251 250 219 220 224 214 227 235 237 245 260 269 275 277 277 280
225 231 226 209 199 215 219 208 197 212 223 220 213 220 221 213 216 212 186 191 213 202 203 214 215 215 213 205 202 206 207 208 214 218 220 220 214 212 237 252 230 198 175 137 208 165 170 233 224 206 231 249 250 227 182 194 192 196 206 200 195 193 195 205 216 223 220 216 240 250 227 228 248 250 212 216 219 220 230 241 247 255 262 266 269 271 272 274
227 224 224 208 210 222 209 197 104 63 235 233 225 221 220 217 219 215 190 186 197 195 199 213 222 217 212 212 211 216 217 209 215 220 209 209 215 209 216 220 186 175 170 164 208 182 188 231 224 163 219 253 250 232 199 200 199 202 213 208 202 202 204 210 217 220 220 228 240 247 253 256 251 203 191 219 217 220 235 247 249 252 257 261 264 265 267 270
239 237 236 229 218 209 200 204 193 171 239 226 219 235 230 223 223 225 211 204 204 200 195 209 222 221 212 213 214 221 224 215 219 225 212 206 212 205 210 208 145 151 186 173 159 162 187 224 181 131 215 246 242 225 205 203 214 224 224 217 213 211 209 211 214 214 210 219 234 241 250 257 247 167 189 220 213 219 237 245 251 257 259 260 263 266 270 274
243 246 249 249 238 209 201 181 168 202 235 199 174 221 246 250 253 252 236 217 211 213 210 209 219 224 215 214 216 223 227 225 229 238 232 223 224 211 201 199 165 157 170 160 153 166 167 190 203 177 213 243 239 204 174 167 211 237 227 220 218 214 204 205 216 222 215 209 219 227 234 246 246 221 219 224 204 215 234 238 247 257 261 264 269 273 276 278